Вернуться в каталог

NOAA 16 DEB

АктивенPO
NORAD 41072·DEBRIS·🇺🇸 United States

Запущен Sep 21, 2000 с Vandenberg Space Force Base

Loading…

Ближайшие Пролёты (ближайшие 24 часа)

TLE

СвежийSource: Space-Track

Эпоха: Sep 14, 2026, 02:49 UTC

1 41072U 00055AF  26257.11740652  .00000292  00000-0  37375-3 0  9993
2 41072  98.8269 314.8418 0283153 248.3279 108.7490 13.54831526533439

Отслеживайте NOAA 16 DEB в реальном времени с AllMySat

Download on the App Store